This is the latest recevied weather packets stored in our database for station/object N6RDS. If no packets are shown the sender has not sent any weather packets the latest 10 day(s).
| Time | Temp. | Humidity | Pressure | Rain* | Wind** | Luminosity | Snow |
|---|---|---|---|---|---|---|---|
| 1777687063 | 11.67° C | 34% | 1024.5 hPa | 0 mm | - | 7 W/m² | - |
| 1777686759 | 11.67° C | 34% | 1024.5 hPa | 0 mm | - | 10 W/m² | - |
| 1777686457 | 11.67° C | 33% | 1024.5 hPa | 0 mm | - | 13 W/m² | - |
| 1777686154 | 12.22° C | 34% | 1024.2 hPa | 0 mm | - | 15 W/m² | - |
| 1777685850 | 12.22° C | 33% | 1024.2 hPa | 0 mm | - | 17 W/m² | - |
| 1777685546 | 12.22° C | 33% | 1024 hPa | 0 mm | - | 20 W/m² | - |
| 1777685243 | 12.78° C | 32% | 1024.2 hPa | 0 mm | - | 24 W/m² | - |
| 1777684941 | 12.78° C | 32% | 1024.2 hPa | 0 mm | - | 26 W/m² | - |
| 1777684638 | 12.78° C | 32% | 1023.9 hPa | 0 mm | - | 23 W/m² | - |
| 1777684333 | 12.78° C | 32% | 1024.2 hPa | 0 mm | - | 21 W/m² | - |
| 1777684032 | 12.78° C | 31% | 1023.7 hPa | 0 mm | - | 23 W/m² | - |
| 1777683727 | 13.33° C | 31% | 1023.8 hPa | 0 mm | - | 22 W/m² | - |
| 1777683424 | 13.89° C | 30% | 1023.6 hPa | 0 mm | - | 26 W/m² | - |
| 1777683122 | 13.89° C | 29% | 1023.8 hPa | 0 mm | - | 30 W/m² | - |
| 1777682818 | 14.44° C | 29% | 1023.4 hPa | 0 mm | - | 36 W/m² | - |
| 1777682515 | 14.44° C | 29% | 1023.6 hPa | 0 mm | - | 37 W/m² | - |
| 1777682213 | 14.44° C | 29% | 1023.4 hPa | 0 mm | - | 40 W/m² | - |
| 1777681910 | 14.44° C | 29% | 1023.6 hPa | 0 mm | - | 44 W/m² | - |
| 1777681605 | 14.44° C | 30% | 1023.7 hPa | 0 mm | - | 44 W/m² | - |
| 1777681304 | 15° C | 29% | 1023.3 hPa | 0 mm | - | 49 W/m² | - |
| 1777681001 | 15° C | 30% | 1023.4 hPa | 0 mm | - | 54 W/m² | - |
| 1777680698 | 15° C | 29% | 1023.3 hPa | 0 mm | - | 50 W/m² | - |
| 1777680396 | 15° C | 30% | 1023.1 hPa | 0 mm | - | 51 W/m² | - |
| 1777680093 | 15° C | 29% | 1023.3 hPa | 0 mm | - | 61 W/m² | - |
| 1777679789 | 15.56° C | 29% | 1023.3 hPa | 0 mm | - | 83 W/m² | - |
* Rain latest hour (hover to see other rain measurements)
** Current wind speed in m/s (hover to see current wind gust speed)